This is the latest recevied weather packets stored in our database for station/object DO8TBO-15. If no packets are shown the sender has not sent any weather packets the latest 1 day(s).
| Time | Temp. | Humidity | Pressure | Rain* | Wind** | Luminosity | Snow |
|---|---|---|---|---|---|---|---|
| 1778076375 | 21.11° C | - | 1004.8 hPa | 0 mm | - | - | - |
| 1778072148 | 21.11° C | - | 1004.9 hPa | 0 mm | - | - | - |
| 1778071544 | 20.56° C | - | 1005.1 hPa | 0 mm | - | - | - |
| 1778069733 | 21.67° C | - | 1005.3 hPa | 0 mm | - | - | - |
| 1778067318 | 20° C | - | 1005.4 hPa | 0 mm | - | - | - |
| 1778066774 | 19.44° C | - | 1005.5 hPa | 0 mm | - | - | - |
| 1778063756 | 20° C | - | 1005.6 hPa | 0 mm | - | - | - |
| 1778062548 | 19.44° C | - | 1005.8 hPa | 0 mm | - | - | - |
| 1778061944 | 18.33° C | - | 1005.7 hPa | 0 mm | - | - | - |
| 1778060737 | 19.44° C | - | 1005.9 hPa | 0 mm | - | - | - |
| 1778059559 | 18.89° C | - | 1006 hPa | 0 mm | - | - | - |
| 1778058956 | 18.33° C | - | 1005.8 hPa | 0 mm | - | - | - |
| 1778058352 | 17.78° C | - | 1006 hPa | 0 mm | - | - | - |
| 1778057144 | 17.22° C | - | 1005.9 hPa | 0 mm | - | - | - |
| 1778056541 | 16.11° C | - | 1005.6 hPa | 0 mm | - | - | - |
| 1778055333 | 16.67° C | - | 1005.6 hPa | 0 mm | - | - | - |
| 1778054729 | 16.11° C | - | 1005.6 hPa | 0 mm | - | - | - |
| 1778054126 | 16.11° C | - | 1005.7 hPa | 0 mm | - | - | - |
| 1778052375 | 15.56° C | - | 1005.5 hPa | 0 mm | - | - | - |
| 1778051167 | 15° C | 38% | 1005.5 hPa | 0 mm | - | - | - |
| 1778050564 | 14.44° C | 60% | 1005.4 hPa | 0 mm | - | - | - |
| 1778049356 | 12.78° C | 63% | 1005.6 hPa | 0 mm | - | - | - |
| 1778047545 | 12.78° C | 80% | 1005.8 hPa | 0 mm | - | - | - |
| 1778046338 | 12.78° C | 85% | 1005.7 hPa | 0 mm | - | - | - |
| 1778045160 | 12.78° C | 85% | 1005.8 hPa | 0 mm | - | - | - |
* Rain latest hour (hover to see other rain measurements)
** Current wind speed in m/s (hover to see current wind gust speed)